This is the latest recevied weather packets stored in our database for station/object K5KVN. If no packets are shown the sender has not sent any weather packets the latest 10 day(s).
| Time | Temp. | Humidity | Pressure | Rain* | Wind** | Luminosity | Snow |
|---|---|---|---|---|---|---|---|
| 1787995812 | 18.89° C | 83% | 1019.9 hPa | 0 mm | - | - | - |
| 1787995211 | 18.89° C | 84% | 1019.9 hPa | 0 mm | - | - | - |
| 1787994611 | 18.89° C | 85% | 1019.8 hPa | 0 mm | - | - | - |
| 1787994012 | 18.33° C | 85% | 1019.8 hPa | 0 mm | - | - | - |
| 1787993412 | 18.33° C | 85% | 1019.8 hPa | 0 mm | - | - | - |
| 1787992813 | 18.33° C | 85% | 1020.1 hPa | 0 mm | - | - | - |
| 1787992210 | 18.33° C | 84% | 1020.1 hPa | 0 mm | - | - | - |
| 1787991670 | 18.89° C | 83% | 1019.9 hPa | 0 mm | - | - | - |
| 1787991009 | 18.89° C | 83% | 1020 hPa | 0 mm | - | - | - |
| 1787990408 | 18.89° C | 82% | 1020 hPa | 0 mm | - | - | - |
| 1787989809 | 19.44° C | 82% | 1020 hPa | 0 mm | - | - | - |
| 1787989209 | 19.44° C | 80% | 1020 hPa | 0 mm | - | - | - |
| 1787988668 | 19.44° C | 80% | 1019.9 hPa | 0 mm | - | - | - |
| 1787988011 | 20° C | 80% | 1020 hPa | 0 mm | - | - | - |
| 1787987466 | 20° C | 80% | 1020 hPa | 0 mm | - | - | - |
| 1787986806 | 20° C | 79% | 1020 hPa | 0 mm | - | - | - |
| 1787986205 | 20.56° C | 78% | 1020 hPa | 0 mm | - | - | - |
| 1787985606 | 20.56° C | 77% | 1020 hPa | 0 mm | - | - | - |
| 1787985065 | 21.11° C | 77% | 1020.2 hPa | 0 mm | - | - | - |
| 1787984403 | 21.11° C | 76% | 1020.1 hPa | 0 mm | - | - | - |
| 1787983864 | 21.67° C | 75% | 1020.2 hPa | 0 mm | - | - | - |
| 1787983203 | 21.67° C | 74% | 1020.2 hPa | 0 mm | - | - | - |
| 1787982604 | 22.22° C | 74% | 1020.3 hPa | 0 mm | - | - | - |
| 1787982004 | 22.22° C | 72% | 1020.2 hPa | 0 mm | - | - | - |
| 1787981401 | 22.22° C | 71% | 1020.2 hPa | 0 mm | - | - | - |
* Rain latest hour (hover to see other rain measurements)
** Current wind speed in m/s (hover to see current wind gust speed)